Overview Statistics Trail Chart Weather Telemetry Raw packets
 

This is the latest recevied weather packets stored in our database for station/object WA6OOO. If no packets are shown the sender has not sent any weather packets the latest 10 day(s).

<< 1 2 3 4 5 6 >>
Time Temp. Humidity Pressure Rain* Wind** Luminosity Snow
1788668452 19.44° C 87% 1016.7 hPa 0 mm - 0 W/m² -
1788668148 18.89° C 86% 1016.8 hPa 0 mm - 0 W/m² -
1788667843 20° C 86% 1016.6 hPa 0 mm - 0 W/m² -
1788667538 20° C 86% 1016.4 hPa 0 mm - 0 W/m² -
1788667245 20° C 85% 1016.6 hPa 0 mm - 0 W/m² -
1788666929 20° C 83% 1016.6 hPa 0 mm - 0 W/m² -
1788666625 20° C 82% 1016.5 hPa 0 mm - 0 W/m² -
1788666324 20° C 82% 1016.4 hPa 0 mm - 0 W/m² -
1788666019 20.56° C 82% 1016.3 hPa 0 mm - 0 W/m² -
1788665714 20.56° C 80% 1016.3 hPa 0 mm - 0 W/m² -
1788665410 20° C 77% 1016.2 hPa 0 mm - 0 W/m² -
1788665107 19.44° C 78% 1016.1 hPa 0 mm - 0 W/m² -
1788664807 19.44° C 83% 1016.1 hPa 0 mm - 0 W/m² -
1788664502 19.44° C 84% 1016.1 hPa 0 mm - 0 W/m² -
1788664197 20° C 86% 1015.9 hPa 0 mm - 0 W/m² -
1788663892 20° C 87% 1015.9 hPa 0 mm - 0 W/m² -
1788663586 20° C 87% 1015.9 hPa 0 mm - 0 W/m² -
1788663279 20° C 87% 1015.8 hPa 0 mm - 0 W/m² -
1788662978 20.56° C 86% 1015.9 hPa 0 mm - 0 W/m² -
1788662678 20.56° C 85% 1015.7 hPa 0 mm - 0 W/m² -
1788662373 20.56° C 84% 1015.8 hPa 0 mm - 0 W/m² -
1788662070 20.56° C 83% 1016 hPa 0 mm - 0 W/m² -
1788661770 21.11° C 82% 1015.9 hPa 0 mm - 0 W/m² -
1788661465 21.11° C 81% 1016 hPa 0 mm - 1 W/m² -
1788661160 21.67° C 80% 1015.8 hPa 0 mm - 3 W/m² -

* Rain latest hour (hover to see other rain measurements)
** Current wind speed in m/s (hover to see current wind gust speed)